Airfield :
LOGIN :

Register | Disclaimer

   EN    FR    IT 

 










Legend :    VFR   Marginal VFR   IFR   Intensive IFR   Very Intensive IFR
Visi :
Ceiling :
>= 8 km
>= 3000ft
5 to 8 km
1000 to 3000 ft
1500m to 5 km
500 to 1000 ft
800 to 1500m
200 to 500 ft
< 800m
< 200 ft
Symbols :   Thunderstorms  Fog  Heavy snow  Heavy precipitations  Wind > 20 kt
SIGMETs :     Misc.  Thunderstorms  Icing  Turbulence  Mountain Waves  Volcanic Ashes







- Airport Elevation : 336 ft
- IATA code : GCI
- Download approach charts


EGJB - Guernsey

CURRENT METAR :
  • 221750Z 06008KT CAVOK 14/08 Q1000

EXPIRED METARs :
  • 221720Z 07006KT CAVOK 16/07 Q1000
  • 221650Z 07006KT CAVOK 17/08 Q1000
  • 221620Z 08007KT CAVOK 17/09 Q1001
  • 221550Z 09005KT CAVOK 17/08 Q1001
  • 221520Z 10007KT CAVOK 17/07 Q1001

TAF TAF EGJB
Valid from the 22 at 18:00 until the 23 at 03:00 UTC


221700Z 2218/2303 09013KT CAVOK
PROB30
TEMPO 2218/2303 09015G28KT 5000 SHRA BKN050CB
ATIS : +44 1481 238 957
No reported NOTAMs for that airfield.



MET'MAP, your aeronautical weather chart ! - Copyright ORBIFLY December 2007 - Disclaimer

ORBIFLY MET'MAP TEAM :

Programming & Development : Alexandra Zaïnal
Concept & Development : Baudouin d'Aumeries
Co-Development & Prog : Marc-Olivier Méhu
Technical & hardware support : Manuel Goepfert

Contact : metmap@orbifly.com




SOURCES & CREDITS :

   NOAA